sat.trackr.live / text

‹ back to catalog

ABS-6

NORAD 25924 · 1999-053A

PAYLOAD ACTIVE UNKNOWN

§ Identity

Operator
Country
ABS
Launch date
1999-09-26
Launch site
TYMSC
Launch vehicle
Mass (kg)
RCS (m²)
39.81

Purposes: comms

External: N2YO · Heavens-Above · Gunter

§ Orbital elements

Epoch: 2026-09-08T21:42:09.226080Z

Period
1,436.08 min
Inclination
0.0372°
Eccentricity
0.0002171
Mean motion
1.00272922 rev/d
Perigee alt
35,777.1 km
Apogee alt
35,795.4 km
Semi-major
42,164.4 km
B*
0.0000e+0
RAAN
254.2579°
Arg perigee
224.6242°
Mean anomaly
353.6027°
Rev number
9,868

§ Raw data

ABS-61 25924U 99053A   26251.90427345 -.00000141  00000+0  00000+0 0  99932 25924   0.0372 254.2579 0002171 224.6242 353.6027  1.00272922 98685

JSON: /api/v1/satellites/25924 · /tle

For live sub-satellite position, see the globe view (requires WebGL).

§ Visibility from observer

Set your observer location to see the next 7 days of passes ≥ 10°. The values pass through the URL so the page stays shareable.

No JS? Fill the form by hand. The geolocation button needs JavaScript.